Time,TemperatureF,DewpointF,PressureIn,WindDirection,WindDirectionDegrees,WindSpeedMPH,WindSpeedGustMPH,Humidity,HourlyPrecipIn,Conditions,Clouds,dailyrainin,SoftwareType,DateUTC
2013-03-31 00:00:00,50.0,43.4,30.05,ESE,113,0.4,5.1,78,0.00,,,0.00,WUHU216HW,2013-03-31 07:00:00,
2013-03-31 00:05:00,49.9,43.2,30.05,NE,45,1.8,4.0,78,0.00,,,0.00,WUHU216HW,2013-03-31 07:05:00,
2013-03-31 00:10:00,49.9,43.6,30.05,NNE,23,3.4,6.7,79,0.00,,,0.00,WUHU216HW,2013-03-31 07:10:00,
2013-03-31 00:15:00,49.9,43.6,30.04,NNE,23,1.8,6.7,79,0.00,,,0.00,WUHU216HW,2013-03-31 07:15:00,
2013-03-31 00:20:00,49.7,43.4,30.04,NE,45,2.5,4.0,79,0.00,,,0.00,WUHU216HW,2013-03-31 07:20:00,
2013-03-31 00:25:00,49.7,43.4,30.04,ENE,68,1.1,3.8,79,0.00,,,0.00,WUHU216HW,2013-03-31 07:25:00,
2013-03-31 00:30:00,49.7,43.4,30.04,NNW,338,1.8,4.3,79,0.00,,,0.00,WUHU216HW,2013-03-31 07:30:00,
2013-03-31 00:35:00,49.7,43.4,30.04,NNE,23,2.2,4.7,79,0.00,,,0.00,WUHU216HW,2013-03-31 07:35:00,
2013-03-31 00:40:00,49.7,43.4,30.04,East,90,1.8,4.7,79,0.00,,,0.00,WUHU216HW,2013-03-31 07:40:00,
2013-03-31 00:45:00,49.7,43.4,30.04,ESE,113,0.9,4.7,79,0.00,,,0.00,WUHU216HW,2013-03-31 07:45:00,
2013-03-31 00:50:00,49.7,43.4,30.04,NE,45,1.8,6.3,79,0.00,,,0.00,WUHU216HW,2013-03-31 07:50:00,
2013-03-31 00:55:00,49.7,43.0,30.04,North,0,3.4,6.3,78,0.00,,,0.00,WUHU216HW,2013-03-31 07:55:00,
2013-03-31 01:00:00,49.5,42.8,30.04,ESE,113,1.3,5.1,78,0.00,,,0.00,WUHU216HW,2013-03-31 08:00:00,
2013-03-31 01:05:00,49.5,42.8,30.04,ENE,68,1.1,5.4,78,0.00,,,0.00,WUHU216HW,2013-03-31 08:05:00,
2013-03-31 01:10:00,49.5,42.8,30.04,ESE,113,1.6,6.0,78,0.00,,,0.00,WUHU216HW,2013-03-31 08:10:00,
2013-03-31 01:15:00,49.5,42.8,30.04,NNE,23,2.9,6.0,78,0.00,,,0.00,WUHU216HW,2013-03-31 08:15:00,
2013-03-31 01:20:00,49.3,43.0,30.04,NE,45,2.7,5.1,79,0.00,,,0.00,WUHU216HW,2013-03-31 08:20:00,
2013-03-31 01:25:00,49.3,43.0,30.04,NE,45,1.8,5.1,79,0.00,,,0.00,WUHU216HW,2013-03-31 08:25:00,
2013-03-31 01:30:00,49.1,43.2,30.04,ENE,68,2.5,4.7,80,0.00,,,0.00,WUHU216HW,2013-03-31 08:30:00,
2013-03-31 01:35:00,49.0,43.0,30.03,ENE,68,4.3,4.7,80,0.00,,,0.00,WUHU216HW,2013-03-31 08:35:00,
2013-03-31 01:40:00,49.0,43.0,30.03,North,0,1.6,4.9,80,0.00,,,0.00,WUHU216HW,2013-03-31 08:40:00,
2013-03-31 01:45:00,49.0,43.0,30.03,NE,45,1.1,4.9,80,0.00,,,0.00,WUHU216HW,2013-03-31 08:45:00,
2013-03-31 01:50:00,48.8,42.8,30.03,NE,45,2.5,4.0,80,0.00,,,0.00,WUHU216HW,2013-03-31 08:50:00,
2013-03-31 01:55:00,48.6,42.7,30.03,NNE,23,2.5,7.2,80,0.00,,,0.00,WUHU216HW,2013-03-31 08:55:00,
2013-03-31 02:00:00,48.6,42.7,30.03,North,0,1.1,7.2,80,0.00,,,0.00,WUHU216HW,2013-03-31 09:00:00,
2013-03-31 02:05:00,48.6,42.7,30.03,NE,45,1.1,4.9,80,0.00,,,0.00,WUHU216HW,2013-03-31 09:05:00,
2013-03-31 02:10:00,48.6,42.7,30.03,ENE,68,0.7,4.0,80,0.00,,,0.00,WUHU216HW,2013-03-31 09:10:00,
2013-03-31 02:15:00,48.6,42.7,30.02,East,90,1.8,4.5,80,0.00,,,0.00,WUHU216HW,2013-03-31 09:15:00,
2013-03-31 02:20:00,48.6,42.7,30.02,NNE,23,5.1,6.0,80,0.00,,,0.00,WUHU216HW,2013-03-31 09:20:00,
2013-03-31 02:25:00,48.6,42.7,30.02,ESE,113,4.3,6.7,80,0.00,,,0.00,WUHU216HW,2013-03-31 09:25:00,
2013-03-31 02:30:00,49.0,42.7,30.02,NNE,23,5.4,8.1,79,0.00,,,0.00,WUHU216HW,2013-03-31 09:30:00,
2013-03-31 02:35:00,49.0,42.7,30.02,North,0,3.4,8.1,79,0.00,,,0.00,WUHU216HW,2013-03-31 09:35:00,
2013-03-31 02:40:00,48.8,42.5,30.02,ENE,68,4.0,6.3,79,0.00,,,0.00,WUHU216HW,2013-03-31 09:40:00,
2013-03-31 02:45:00,48.8,42.5,30.02,ENE,68,3.6,7.4,79,0.00,,,0.00,WUHU216HW,2013-03-31 09:45:00,
2013-03-31 02:50:00,48.8,42.1,30.02,East,90,3.8,7.4,78,0.00,,,0.00,WUHU216HW,2013-03-31 09:50:00,
2013-03-31 02:55:00,48.8,42.1,30.02,NE,45,4.5,5.4,78,0.00,,,0.00,WUHU216HW,2013-03-31 09:55:00,
2013-03-31 03:00:00,48.8,42.1,30.01,NNE,23,4.3,5.4,78,0.00,,,0.00,WUHU216HW,2013-03-31 10:00:00,
2013-03-31 03:05:00,48.6,41.9,30.01,NNE,23,2.7,4.5,78,0.00,,,0.00,WUHU216HW,2013-03-31 10:05:00,
2013-03-31 03:10:00,48.6,42.3,30.01,NE,45,3.8,4.3,79,0.00,,,0.00,WUHU216HW,2013-03-31 10:10:00,
2013-03-31 03:15:00,48.6,41.9,30.01,North,0,1.1,6.0,78,0.00,,,0.00,WUHU216HW,2013-03-31 10:15:00,
2013-03-31 03:20:00,48.6,41.9,30.01,ESE,113,2.5,6.0,78,0.00,,,0.00,WUHU216HW,2013-03-31 10:20:00,
2013-03-31 03:25:00,48.6,41.9,30.01,NE,45,3.1,4.0,78,0.00,,,0.00,WUHU216HW,2013-03-31 10:25:00,
2013-03-31 03:30:00,48.4,42.1,30.01,NE,45,1.1,4.0,79,0.00,,,0.00,WUHU216HW,2013-03-31 10:30:00,
2013-03-31 03:35:00,48.2,41.9,30.01,NE,45,1.6,5.6,79,0.00,,,0.00,WUHU216HW,2013-03-31 10:35:00,
2013-03-31 03:40:00,48.2,41.9,30.01,NNE,23,0.0,5.6,79,0.00,,,0.00,WUHU216HW,2013-03-31 10:40:00,
2013-03-31 03:45:00,48.1,41.8,30.01,SE,135,0.2,2.5,79,0.00,,,0.00,WUHU216HW,2013-03-31 10:45:00,
2013-03-31 03:50:00,48.1,41.8,30.00,ENE,68,0.4,2.5,79,0.00,,,0.00,WUHU216HW,2013-03-31 10:50:00,
2013-03-31 03:55:00,48.1,41.8,30.00,North,0,0.0,1.8,79,0.00,,,0.00,WUHU216HW,2013-03-31 10:55:00,
2013-03-31 04:00:00,47.9,41.7,30.00,NE,45,0.0,1.8,79,0.00,,,0.00,WUHU216HW,2013-03-31 11:00:00,
2013-03-31 04:05:00,47.9,41.7,30.00,SSW,203,1.1,1.8,79,0.00,,,0.00,WUHU216HW,2013-03-31 11:05:00,
2013-03-31 04:10:00,47.9,41.7,30.00,East,90,1.3,2.0,79,0.00,,,0.00,WUHU216HW,2013-03-31 11:10:00,
2013-03-31 04:15:00,47.9,41.9,30.01,NNE,23,0.7,5.4,80,0.00,,,0.00,WUHU216HW,2013-03-31 11:15:00,
2013-03-31 04:20:00,47.9,41.9,30.00,WNW,293,1.1,5.4,80,0.00,,,0.00,WUHU216HW,2013-03-31 11:20:00,
2013-03-31 04:25:00,47.7,41.9,30.00,NE,45,1.3,2.0,80,0.00,,,0.00,WUHU216HW,2013-03-31 11:25:00,
2013-03-31 04:30:00,47.7,41.9,30.00,NNE,23,3.4,3.4,80,0.00,,,0.00,WUHU216HW,2013-03-31 11:30:00,
2013-03-31 04:35:00,47.7,41.9,30.00,North,0,4.7,4.7,80,0.00,,,0.00,WUHU216HW,2013-03-31 11:35:00,
2013-03-31 04:40:00,47.7,41.9,30.00,ENE,68,1.8,4.7,80,0.00,,,0.00,WUHU216HW,2013-03-31 11:40:00,
2013-03-31 04:45:00,47.9,41.9,30.00,NNE,23,1.6,4.7,80,0.00,,,0.00,WUHU216HW,2013-03-31 11:45:00,
2013-03-31 04:50:00,47.9,41.9,30.00,SE,135,0.7,3.6,80,0.00,,,0.00,WUHU216HW,2013-03-31 11:50:00,
2013-03-31 04:55:00,47.9,41.9,29.99,ENE,68,0.7,2.2,80,0.00,,,0.00,WUHU216HW,2013-03-31 11:55:00,
2013-03-31 05:00:00,47.7,41.9,29.99,North,0,1.6,3.4,80,0.00,,,0.00,WUHU216HW,2013-03-31 12:00:00,
2013-03-31 05:05:00,47.7,41.9,29.99,NE,45,0.2,5.6,80,0.00,,,0.00,WUHU216HW,2013-03-31 12:05:00,
2013-03-31 05:10:00,47.9,41.9,29.99,ENE,68,3.4,5.6,80,0.00,,,0.00,WUHU216HW,2013-03-31 12:10:00,
2013-03-31 05:15:00,47.9,41.9,29.99,NNW,338,1.1,5.4,80,0.00,,,0.00,WUHU216HW,2013-03-31 12:15:00,
2013-03-31 05:20:00,47.7,41.9,29.99,NE,45,0.4,4.3,80,0.00,,,0.00,WUHU216HW,2013-03-31 12:20:00,
2013-03-31 05:25:00,47.7,41.9,30.00,ESE,113,2.5,5.8,80,0.00,,,0.00,WUHU216HW,2013-03-31 12:25:00,
2013-03-31 05:30:00,47.5,41.9,30.00,North,0,3.4,7.6,81,0.00,,,0.00,WUHU216HW,2013-03-31 12:30:00,
2013-03-31 05:35:00,47.5,41.9,30.00,ENE,68,0.9,7.6,81,0.00,,,0.00,WUHU216HW,2013-03-31 12:35:00,
2013-03-31 05:40:00,47.3,41.8,30.00,NNE,23,2.5,5.6,81,0.00,,,0.00,WUHU216HW,2013-03-31 12:40:00,
2013-03-31 05:45:00,47.2,41.7,30.00,North,0,2.5,3.6,81,0.00,,,0.00,WUHU216HW,2013-03-31 12:45:00,
2013-03-31 05:50:00,47.2,41.7,30.00,NNW,338,1.3,3.4,81,0.00,,,0.00,WUHU216HW,2013-03-31 12:50:00,
2013-03-31 05:55:00,47.2,41.7,30.00,NNW,338,1.3,3.6,81,0.00,,,0.00,WUHU216HW,2013-03-31 12:55:00,
2013-03-31 06:00:00,47.2,41.7,30.00,NNE,23,0.4,3.6,81,0.00,,,0.00,WUHU216HW,2013-03-31 13:00:00,
2013-03-31 06:05:00,47.2,41.7,30.00,ENE,68,1.6,2.0,81,0.00,,,0.00,WUHU216HW,2013-03-31 13:05:00,
2013-03-31 06:10:00,47.2,41.7,30.00,North,0,0.7,1.8,81,0.00,,,0.00,WUHU216HW,2013-03-31 13:10:00,
2013-03-31 06:15:00,47.2,41.7,30.00,NE,45,1.8,2.5,81,0.00,,,0.00,WUHU216HW,2013-03-31 13:15:00,
2013-03-31 06:20:00,47.2,41.7,30.00,NE,45,1.1,2.7,81,0.00,,,0.00,WUHU216HW,2013-03-31 13:20:00,
2013-03-31 06:25:00,47.2,41.7,30.00,NE,45,1.1,2.7,81,0.00,,,0.00,WUHU216HW,2013-03-31 13:25:00,
2013-03-31 06:30:00,47.2,41.7,30.00,NE,45,0.4,2.7,81,0.00,,,0.00,WUHU216HW,2013-03-31 13:30:00,
2013-03-31 06:35:00,47.0,41.5,30.00,ENE,68,0.9,2.7,81,0.00,,,0.00,WUHU216HW,2013-03-31 13:35:00,
2013-03-31 06:40:00,46.8,41.6,30.00,NE,45,1.1,3.1,82,0.00,,,0.00,WUHU216HW,2013-03-31 13:40:00,
2013-03-31 06:45:00,47.0,41.8,30.00,NNE,23,2.5,4.0,82,0.00,,,0.00,WUHU216HW,2013-03-31 13:45:00,
2013-03-31 06:50:00,47.0,41.8,30.00,NNE,23,2.5,4.0,82,0.00,,,0.00,WUHU216HW,2013-03-31 13:50:00,
2013-03-31 06:55:00,47.0,41.5,30.00,NE,45,2.2,4.0,81,0.00,,,0.00,WUHU216HW,2013-03-31 13:55:00,
2013-03-31 07:00:00,47.0,41.8,30.00,ENE,68,0.7,4.3,82,0.00,,,0.00,WUHU216HW,2013-03-31 14:00:00,
2013-03-31 07:05:00,47.0,41.5,30.00,SE,135,0.7,4.3,81,0.00,,,0.00,WUHU216HW,2013-03-31 14:05:00,
2013-03-31 07:10:00,47.0,41.8,30.01,NNE,23,0.4,3.8,82,0.00,,,0.00,WUHU216HW,2013-03-31 14:10:00,
2013-03-31 07:15:00,47.2,41.9,30.00,NNE,23,3.8,3.8,82,0.00,,,0.00,WUHU216HW,2013-03-31 14:15:00,
2013-03-31 07:20:00,47.2,41.9,30.00,NNE,23,1.1,4.3,82,0.00,,,0.00,WUHU216HW,2013-03-31 14:20:00,
2013-03-31 07:25:00,47.2,42.3,30.01,NNW,338,1.3,4.3,83,0.00,,,0.00,WUHU216HW,2013-03-31 14:25:00,
2013-03-31 07:30:00,47.3,42.5,30.01,NNE,23,0.7,4.0,83,0.00,,,0.00,WUHU216HW,2013-03-31 14:30:00,
2013-03-31 07:35:00,47.5,42.9,30.01,NE,45,1.3,5.6,84,0.00,,,0.00,WUHU216HW,2013-03-31 14:35:00,
2013-03-31 07:40:00,47.7,43.1,30.00,ENE,68,3.8,5.6,84,0.00,,,0.00,WUHU216HW,2013-03-31 14:40:00,
2013-03-31 07:45:00,47.9,43.3,30.01,ESE,113,2.7,5.4,84,0.00,,,0.00,WUHU216HW,2013-03-31 14:45:00,
2013-03-31 07:50:00,48.1,43.1,30.01,North,0,3.8,4.9,83,0.00,,,0.00,WUHU216HW,2013-03-31 14:50:00,
2013-03-31 07:55:00,48.4,43.5,30.01,NNE,23,4.0,4.0,83,0.00,,,0.00,WUHU216HW,2013-03-31 14:55:00,
2013-03-31 08:00:00,48.6,43.7,30.01,NNE,23,0.9,4.0,83,0.00,,,0.00,WUHU216HW,2013-03-31 15:00:00,
2013-03-31 08:05:00,49.3,44.7,30.01,ESE,113,2.2,4.3,84,0.00,,,0.00,WUHU216HW,2013-03-31 15:05:00,
2013-03-31 08:10:00,49.9,44.8,30.01,ENE,68,1.8,4.3,83,0.00,,,0.00,WUHU216HW,2013-03-31 15:10:00,
2013-03-31 08:15:00,50.4,45.1,30.01,NE,45,1.1,5.8,82,0.00,,,0.00,WUHU216HW,2013-03-31 15:15:00,
2013-03-31 08:20:00,50.8,45.1,30.01,East,90,0.9,5.8,81,0.00,,,0.00,WUHU216HW,2013-03-31 15:20:00,
2013-03-31 08:25:00,51.1,45.2,30.01,North,0,0.4,4.0,80,0.00,,,0.00,WUHU216HW,2013-03-31 15:25:00,
2013-03-31 08:30:00,51.5,45.2,30.01,East,90,2.7,4.7,79,0.00,,,0.00,WUHU216HW,2013-03-31 15:30:00,
2013-03-31 08:35:00,52.0,45.1,30.01,ENE,68,5.4,5.4,77,0.00,,,0.00,WUHU216HW,2013-03-31 15:35:00,
2013-03-31 08:40:00,52.4,45.4,30.01,WNW,293,2.2,5.4,77,0.00,,,0.00,WUHU216HW,2013-03-31 15:40:00,
2013-03-31 08:45:00,52.7,45.0,30.01,ENE,68,2.5,3.1,75,0.00,,,0.00,WUHU216HW,2013-03-31 15:45:00,
2013-03-31 08:50:00,53.3,45.2,30.01,NNW,338,0.9,5.4,74,0.00,,,0.00,WUHU216HW,2013-03-31 15:50:00,
2013-03-31 08:55:00,53.6,45.5,30.01,NNE,23,4.7,5.4,74,0.00,,,0.00,WUHU216HW,2013-03-31 15:55:00,
2013-03-31 09:00:00,54.0,45.6,30.01,NNW,338,1.6,6.7,73,0.00,,,0.00,WUHU216HW,2013-03-31 16:00:00,
2013-03-31 09:05:00,54.0,45.6,30.01,ESE,113,2.5,7.8,73,0.00,,,0.00,WUHU216HW,2013-03-31 16:05:00,
2013-03-31 09:10:00,54.2,45.7,30.01,North,0,4.0,8.1,73,0.00,,,0.00,WUHU216HW,2013-03-31 16:10:00,
2013-03-31 09:15:00,54.4,45.6,30.01,ESE,113,4.0,8.1,72,0.00,,,0.00,WUHU216HW,2013-03-31 16:15:00,
2013-03-31 09:20:00,54.5,45.7,30.01,ENE,68,5.4,8.7,72,0.00,,,0.00,WUHU216HW,2013-03-31 16:20:00,
2013-03-31 09:25:00,54.7,45.9,30.01,East,90,2.0,8.7,72,0.00,,,0.00,WUHU216HW,2013-03-31 16:25:00,
2013-03-31 09:30:00,54.9,45.7,30.01,NNW,338,2.9,6.5,71,0.00,,,0.00,WUHU216HW,2013-03-31 16:30:00,
2013-03-31 09:35:00,55.1,45.5,30.01,NNW,338,2.2,6.5,70,0.00,,,0.00,WUHU216HW,2013-03-31 16:35:00,
2013-03-31 09:40:00,55.6,45.6,30.01,ENE,68,1.3,6.9,69,0.00,,,0.00,WUHU216HW,2013-03-31 16:40:00,
2013-03-31 09:45:00,55.8,46.3,30.00,NNE,23,3.6,6.9,70,0.00,,,0.00,WUHU216HW,2013-03-31 16:45:00,
2013-03-31 09:50:00,56.3,46.3,30.01,North,0,1.8,5.1,69,0.00,,,0.00,WUHU216HW,2013-03-31 16:50:00,
2013-03-31 09:55:00,56.7,46.3,30.00,SE,135,1.8,6.3,68,0.00,,,0.00,WUHU216HW,2013-03-31 16:55:00,
2013-03-31 10:00:00,57.1,46.5,30.00,ENE,68,3.8,6.3,68,0.00,,,0.00,WUHU216HW,2013-03-31 17:00:00,
2013-03-31 10:05:00,57.2,46.4,30.01,SE,135,1.3,5.4,67,0.00,,,0.00,WUHU216HW,2013-03-31 17:05:00,
2013-03-31 10:10:00,57.4,46.5,30.00,North,0,3.4,4.7,67,0.00,,,0.00,WUHU216HW,2013-03-31 17:10:00,
2013-03-31 10:15:00,57.6,47.1,30.00,ENE,68,2.0,3.8,68,0.00,,,0.00,WUHU216HW,2013-03-31 17:15:00,
2013-03-31 10:20:00,57.6,45.5,30.00,ENE,68,4.0,5.4,64,0.00,,,0.00,WUHU216HW,2013-03-31 17:20:00,
2013-03-31 10:25:00,57.4,46.1,30.00,NE,45,2.9,5.4,66,0.00,,,0.00,WUHU216HW,2013-03-31 17:25:00,
2013-03-31 10:30:00,57.2,45.9,30.00,ENE,68,1.3,5.8,66,0.00,,,0.00,WUHU216HW,2013-03-31 17:30:00,
2013-03-31 10:35:00,57.2,45.9,30.00,NNW,338,2.0,6.0,66,0.00,,,0.00,WUHU216HW,2013-03-31 17:35:00,
2013-03-31 10:40:00,56.7,45.8,30.00,NE,45,3.6,8.7,67,0.00,,,0.00,WUHU216HW,2013-03-31 17:40:00,
2013-03-31 10:45:00,56.7,45.5,30.00,East,90,6.5,8.7,66,0.00,,,0.00,WUHU216HW,2013-03-31 17:45:00,
2013-03-31 10:50:00,56.3,45.1,30.00,ENE,68,3.4,6.5,66,0.00,,,0.00,WUHU216HW,2013-03-31 17:50:00,
2013-03-31 10:55:00,56.9,46.5,30.01,ESE,113,2.0,5.6,68,0.00,,,0.00,WUHU216HW,2013-03-31 17:55:00,
2013-03-31 11:00:00,58.0,47.9,30.01,South,180,1.1,4.0,69,0.00,,,0.00,WUHU216HW,2013-03-31 18:00:00,
2013-03-31 11:05:00,58.9,46.7,30.01,NNE,23,5.1,6.7,64,0.00,,,0.00,WUHU216HW,2013-03-31 18:05:00,
2013-03-31 11:10:00,59.0,46.8,30.01,North,0,7.6,7.6,64,0.00,,,0.00,WUHU216HW,2013-03-31 18:10:00,
2013-03-31 11:15:00,59.4,46.8,30.01,NE,45,7.8,8.5,63,0.00,,,0.00,WUHU216HW,2013-03-31 18:15:00,
2013-03-31 11:20:00,59.9,46.9,30.00,NNE,23,8.1,8.5,62,0.00,,,0.00,WUHU216HW,2013-03-31 18:20:00,
2013-03-31 11:25:00,60.5,47.9,30.00,North,0,2.7,8.1,63,0.00,,,0.00,WUHU216HW,2013-03-31 18:25:00,
2013-03-31 11:30:00,61.0,48.4,30.00,NNE,23,6.5,8.1,63,0.00,,,0.00,WUHU216HW,2013-03-31 18:30:00,
2013-03-31 11:35:00,61.4,47.9,30.00,NNE,23,6.9,7.6,61,0.00,,,0.00,WUHU216HW,2013-03-31 18:35:00,
2013-03-31 11:40:00,61.4,47.9,30.01,NE,45,1.3,7.4,61,0.00,,,0.00,WUHU216HW,2013-03-31 18:40:00,
2013-03-31 11:45:00,61.6,48.4,30.01,ESE,113,3.1,6.3,62,0.00,,,0.00,WUHU216HW,2013-03-31 18:45:00,
2013-03-31 11:50:00,61.6,48.4,30.01,NE,45,3.4,4.7,62,0.00,,,0.00,WUHU216HW,2013-03-31 18:50:00,
2013-03-31 11:55:00,61.6,48.1,30.01,North,0,2.9,6.5,61,0.00,,,0.00,WUHU216HW,2013-03-31 18:55:00,
2013-03-31 12:00:00,61.7,48.3,30.00,NNE,23,2.9,6.5,61,0.00,,,0.00,WUHU216HW,2013-03-31 19:00:00,
2013-03-31 12:05:00,62.3,48.7,30.00,NNE,23,2.9,6.0,61,0.00,,,0.00,WUHU216HW,2013-03-31 19:05:00,
2013-03-31 12:10:00,62.3,48.7,30.00,ENE,68,1.3,6.5,61,0.00,,,0.00,WUHU216HW,2013-03-31 19:10:00,
2013-03-31 12:15:00,62.3,48.7,30.00,NE,45,4.0,6.5,61,0.00,,,0.00,WUHU216HW,2013-03-31 19:15:00,
2013-03-31 12:20:00,62.1,48.2,30.00,NE,45,3.4,4.0,60,0.00,,,0.00,WUHU216HW,2013-03-31 19:20:00,
2013-03-31 12:25:00,61.9,48.3,30.00,North,0,4.5,7.2,61,0.00,,,0.00,WUHU216HW,2013-03-31 19:25:00,
2013-03-31 12:30:00,61.6,48.1,29.99,East,90,3.4,7.2,61,0.00,,,0.00,WUHU216HW,2013-03-31 19:30:00,
2013-03-31 12:35:00,61.6,48.1,30.00,ENE,68,2.5,4.9,61,0.00,,,0.00,WUHU216HW,2013-03-31 19:35:00,
2013-03-31 12:40:00,61.6,48.4,29.99,NE,45,2.2,6.0,62,0.00,,,0.00,WUHU216HW,2013-03-31 19:40:00,
2013-03-31 12:45:00,61.4,47.9,29.99,East,90,4.0,6.0,61,0.00,,,0.00,WUHU216HW,2013-03-31 19:45:00,
2013-03-31 12:50:00,60.8,47.8,29.99,NNE,23,4.7,5.4,62,0.00,,,0.00,WUHU216HW,2013-03-31 19:50:00,
2013-03-31 12:55:00,61.2,48.2,29.99,NW,315,1.1,7.2,62,0.00,,,0.00,WUHU216HW,2013-03-31 19:55:00,
2013-03-31 13:00:00,61.6,48.1,29.99,North,0,7.2,7.2,61,0.00,,,0.00,WUHU216HW,2013-03-31 20:00:00,
2013-03-31 13:05:00,61.9,48.0,29.99,ESE,113,2.7,8.1,60,0.00,,,0.00,WUHU216HW,2013-03-31 20:05:00,
2013-03-31 13:10:00,62.5,48.0,29.99,NE,45,2.7,8.3,59,0.00,,,0.00,WUHU216HW,2013-03-31 20:10:00,
2013-03-31 13:15:00,62.8,47.8,29.98,ENE,68,2.0,8.7,58,0.00,,,0.00,WUHU216HW,2013-03-31 20:15:00,
2013-03-31 13:20:00,63.0,47.4,29.98,ENE,68,3.6,8.7,57,0.00,,,0.00,WUHU216HW,2013-03-31 20:20:00,
2013-03-31 13:25:00,63.0,47.0,29.98,North,0,9.2,9.2,56,0.00,,,0.00,WUHU216HW,2013-03-31 20:25:00,
2013-03-31 13:30:00,62.8,47.4,29.98,NE,45,7.2,9.4,57,0.00,,,0.00,WUHU216HW,2013-03-31 20:30:00,
2013-03-31 13:35:00,62.6,46.2,29.98,NNE,23,6.5,9.4,55,0.00,,,0.00,WUHU216HW,2013-03-31 20:35:00,
2013-03-31 13:40:00,62.8,46.4,29.98,NE,45,4.0,8.5,55,0.00,,,0.00,WUHU216HW,2013-03-31 20:40:00,
2013-03-31 13:45:00,63.0,46.0,29.98,North,0,8.3,8.5,54,0.00,,,0.00,WUHU216HW,2013-03-31 20:45:00,
2013-03-31 13:50:00,63.4,45.4,29.97,NNE,23,4.7,8.3,52,0.00,,,0.00,WUHU216HW,2013-03-31 20:50:00,
2013-03-31 13:55:00,63.5,46.0,29.97,North,0,5.1,8.3,53,0.00,,,0.00,WUHU216HW,2013-03-31 20:55:00,
2013-03-31 14:00:00,63.7,46.2,29.97,NE,45,6.3,8.3,53,0.00,,,0.00,WUHU216HW,2013-03-31 21:00:00,
2013-03-31 14:05:00,63.7,46.2,29.97,NE,45,4.7,8.3,53,0.00,,,0.00,WUHU216HW,2013-03-31 21:05:00,
2013-03-31 14:10:00,63.7,46.6,29.97,ENE,68,3.4,7.6,54,0.00,,,0.00,WUHU216HW,2013-03-31 21:10:00,
2013-03-31 14:15:00,63.7,46.2,29.97,North,0,4.7,8.1,53,0.00,,,0.00,WUHU216HW,2013-03-31 21:15:00,
2013-03-31 14:20:00,64.3,47.2,29.96,SE,135,2.5,8.1,54,0.00,,,0.00,WUHU216HW,2013-03-31 21:20:00,
2013-03-31 14:25:00,64.3,46.2,29.96,North,0,4.5,6.3,52,0.00,,,0.00,WUHU216HW,2013-03-31 21:25:00,
2013-03-31 14:30:00,64.1,46.0,29.96,NNE,23,6.7,8.5,52,0.00,,,0.00,WUHU216HW,2013-03-31 21:30:00,
2013-03-31 14:35:00,64.1,46.5,29.96,North,0,4.9,8.5,53,0.00,,,0.00,WUHU216HW,2013-03-31 21:35:00,
2013-03-31 14:40:00,64.3,46.2,29.96,NE,45,5.4,7.8,52,0.00,,,0.00,WUHU216HW,2013-03-31 21:40:00,
2013-03-31 14:45:00,64.4,46.4,29.96,NNE,23,6.9,8.9,52,0.00,,,0.00,WUHU216HW,2013-03-31 21:45:00,
2013-03-31 14:50:00,64.4,46.4,29.95,NNE,23,3.8,8.9,52,0.00,,,0.00,WUHU216HW,2013-03-31 21:50:00,
2013-03-31 14:55:00,64.4,45.4,29.95,NNE,23,2.5,8.7,50,0.00,,,0.00,WUHU216HW,2013-03-31 21:55:00,
2013-03-31 15:00:00,64.4,45.8,29.95,NE,45,1.8,8.9,51,0.00,,,0.00,WUHU216HW,2013-03-31 22:00:00,
2013-03-31 15:05:00,64.4,45.8,29.95,NE,45,4.7,8.9,51,0.00,,,0.00,WUHU216HW,2013-03-31 22:05:00,
2013-03-31 15:10:00,64.4,46.8,29.94,NNE,23,2.0,8.5,53,0.00,,,0.00,WUHU216HW,2013-03-31 22:10:00,
2013-03-31 15:15:00,64.6,46.5,29.94,WSW,248,1.3,8.1,52,0.00,,,0.00,WUHU216HW,2013-03-31 22:15:00,
2013-03-31 15:20:00,64.8,46.7,29.94,ENE,68,3.4,8.1,52,0.00,,,0.00,WUHU216HW,2013-03-31 22:20:00,
2013-03-31 15:25:00,64.3,45.7,29.94,NNE,23,2.7,5.4,51,0.00,,,0.00,WUHU216HW,2013-03-31 22:25:00,
2013-03-31 15:30:00,63.7,45.7,29.94,ESE,113,2.2,4.7,52,0.00,,,0.00,WUHU216HW,2013-03-31 22:30:00,
2013-03-31 15:35:00,63.5,46.0,29.93,ESE,113,2.0,7.2,53,0.00,,,0.00,WUHU216HW,2013-03-31 22:35:00,
2013-03-31 15:40:00,63.7,46.6,29.93,ESE,113,2.5,7.2,54,0.00,,,0.00,WUHU216HW,2013-03-31 22:40:00,
2013-03-31 15:45:00,63.7,46.2,29.93,NE,45,2.5,5.8,53,0.00,,,0.00,WUHU216HW,2013-03-31 22:45:00,
2013-03-31 15:50:00,63.7,46.2,29.93,East,90,2.9,4.9,53,0.00,,,0.00,WUHU216HW,2013-03-31 22:50:00,
2013-03-31 15:55:00,63.4,45.8,29.93,East,90,3.6,4.0,53,0.00,,,0.00,WUHU216HW,2013-03-31 22:55:00,
2013-03-31 16:00:00,63.4,45.8,29.93,NE,45,3.6,4.0,53,0.00,,,0.00,WUHU216HW,2013-03-31 23:00:00,
2013-03-31 16:05:00,63.5,46.0,29.92,SE,135,2.0,4.0,53,0.00,,,0.00,WUHU216HW,2013-03-31 23:05:00,
2013-03-31 16:10:00,63.5,46.0,29.92,NE,45,4.0,4.7,53,0.00,,,0.00,WUHU216HW,2013-03-31 23:10:00,
2013-03-31 16:15:00,63.7,45.7,29.92,ENE,68,3.1,4.7,52,0.00,,,0.00,WUHU216HW,2013-03-31 23:15:00,
2013-03-31 16:20:00,63.4,45.8,29.92,NE,45,1.1,4.7,53,0.00,,,0.00,WUHU216HW,2013-03-31 23:20:00,
2013-03-31 16:25:00,63.4,45.8,29.91,East,90,2.7,4.0,53,0.00,,,0.00,WUHU216HW,2013-03-31 23:25:00,
2013-03-31 16:30:00,63.7,46.2,29.91,ENE,68,2.9,3.4,53,0.00,,,0.00,WUHU216HW,2013-03-31 23:30:00,
2013-03-31 16:35:00,63.7,45.7,29.91,ESE,113,2.2,4.0,52,0.00,,,0.00,WUHU216HW,2013-03-31 23:35:00,
2013-03-31 16:40:00,63.5,45.6,29.91,NNW,338,0.4,4.0,52,0.00,,,0.00,WUHU216HW,2013-03-31 23:40:00,
2013-03-31 16:45:00,63.7,45.7,29.91,East,90,1.6,3.8,52,0.00,,,0.00,WUHU216HW,2013-03-31 23:45:00,
2013-03-31 16:50:00,63.7,45.7,29.91,ESE,113,1.1,4.3,52,0.00,,,0.00,WUHU216HW,2013-03-31 23:50:00,
2013-03-31 16:55:00,63.7,45.7,29.91,ENE,68,2.0,4.3,52,0.00,,,0.00,WUHU216HW,2013-03-31 23:55:00,
2013-03-31 17:00:00,63.9,45.8,29.91,NE,45,2.5,3.8,52,0.00,,,0.00,WUHU216HW,2013-04-01 00:00:00,
2013-03-31 17:05:00,63.9,45.8,29.91,NNE,23,4.5,4.5,52,0.00,,,0.00,WUHU216HW,2013-04-01 00:05:00,
2013-03-31 17:10:00,63.9,45.8,29.91,NNE,23,1.8,4.9,52,0.00,,,0.00,WUHU216HW,2013-04-01 00:10:00,
2013-03-31 17:15:00,64.1,46.5,29.90,NE,45,0.9,4.9,53,0.00,,,0.00,WUHU216HW,2013-04-01 00:15:00,
2013-03-31 17:20:00,64.1,46.5,29.91,NE,45,2.5,2.5,53,0.00,,,0.00,WUHU216HW,2013-04-01 00:20:00,
2013-03-31 17:25:00,63.9,46.4,29.91,NE,45,1.8,3.1,53,0.00,,,0.00,WUHU216HW,2013-04-01 00:25:00,
2013-03-31 17:30:00,63.7,46.2,29.91,NE,45,3.6,3.8,53,0.00,,,0.00,WUHU216HW,2013-04-01 00:30:00,
2013-03-31 17:35:00,63.5,46.0,29.91,NE,45,1.6,4.7,53,0.00,,,0.00,WUHU216HW,2013-04-01 00:35:00,
2013-03-31 17:40:00,63.4,45.8,29.91,North,0,2.5,4.9,53,0.00,,,0.00,WUHU216HW,2013-04-01 00:40:00,
2013-03-31 17:45:00,63.2,45.7,29.91,ENE,68,2.9,4.9,53,0.00,,,0.00,WUHU216HW,2013-04-01 00:45:00,
2013-03-31 17:50:00,63.0,45.6,29.91,NE,45,3.1,5.4,53,0.00,,,0.00,WUHU216HW,2013-04-01 00:50:00,
2013-03-31 17:55:00,62.8,45.4,29.91,NE,45,1.6,5.4,53,0.00,,,0.00,WUHU216HW,2013-04-01 00:55:00,
2013-03-31 18:00:00,62.6,45.7,29.90,ENE,68,0.4,3.1,54,0.00,,,0.00,WUHU216HW,2013-04-01 01:00:00,
2013-03-31 18:05:00,62.3,45.4,29.91,North,0,3.4,3.4,54,0.00,,,0.00,WUHU216HW,2013-04-01 01:05:00,
2013-03-31 18:10:00,62.3,45.4,29.91,North,0,2.7,3.6,54,0.00,,,0.00,WUHU216HW,2013-04-01 01:10:00,
2013-03-31 18:15:00,62.1,45.2,29.90,East,90,1.8,3.6,54,0.00,,,0.00,WUHU216HW,2013-04-01 01:15:00,
2013-03-31 18:20:00,61.9,45.0,29.90,NNE,23,2.5,4.0,54,0.00,,,0.00,WUHU216HW,2013-04-01 01:20:00,
2013-03-31 18:25:00,61.7,45.4,29.90,NE,45,1.1,4.0,55,0.00,,,0.00,WUHU216HW,2013-04-01 01:25:00,
2013-03-31 18:30:00,61.6,45.2,29.90,NNE,23,2.9,3.4,55,0.00,,,0.00,WUHU216HW,2013-04-01 01:30:00,
2013-03-31 18:35:00,61.7,45.4,29.90,NNE,23,0.2,3.4,55,0.00,,,0.00,WUHU216HW,2013-04-01 01:35:00,
2013-03-31 18:40:00,61.6,45.2,29.90,ESE,113,0.9,2.7,55,0.00,,,0.00,WUHU216HW,2013-04-01 01:40:00,
2013-03-31 18:45:00,61.6,45.2,29.90,NE,45,1.3,2.5,55,0.00,,,0.00,WUHU216HW,2013-04-01 01:45:00,
2013-03-31 18:50:00,61.4,45.0,29.90,SE,135,0.7,3.4,55,0.00,,,0.00,WUHU216HW,2013-04-01 01:50:00,
2013-03-31 18:55:00,61.2,44.9,29.90,NE,45,1.1,3.4,55,0.00,,,0.00,WUHU216HW,2013-04-01 01:55:00,
2013-03-31 19:00:00,61.0,45.2,29.90,NNE,23,1.1,3.1,56,0.00,,,0.00,WUHU216HW,2013-04-01 02:00:00,
2013-03-31 19:05:00,60.8,44.6,29.90,NE,45,1.1,2.9,55,0.00,,,0.00,WUHU216HW,2013-04-01 02:05:00,
2013-03-31 19:10:00,60.7,44.8,29.90,NE,45,0.0,2.9,56,0.00,,,0.00,WUHU216HW,2013-04-01 02:10:00,
2013-03-31 19:15:00,60.7,44.8,29.90,ENE,68,0.2,1.6,56,0.00,,,0.00,WUHU216HW,2013-04-01 02:15:00,
2013-03-31 19:20:00,60.5,44.7,29.90,ENE,68,0.7,2.5,56,0.00,,,0.00,WUHU216HW,2013-04-01 02:20:00,
2013-03-31 19:25:00,60.3,44.6,29.90,NE,45,1.1,2.5,56,0.00,,,0.00,WUHU216HW,2013-04-01 02:25:00,
2013-03-31 19:30:00,60.1,44.4,29.90,ENE,68,0.4,1.8,56,0.00,,,0.00,WUHU216HW,2013-04-01 02:30:00,
2013-03-31 19:35:00,59.9,44.6,29.90,NE,45,0.9,1.8,57,0.00,,,0.00,WUHU216HW,2013-04-01 02:35:00,
2013-03-31 19:40:00,59.8,44.5,29.90,NW,315,0.0,3.6,57,0.00,,,0.00,WUHU216HW,2013-04-01 02:40:00,
2013-03-31 19:45:00,59.6,44.3,29.90,ESE,113,0.2,3.6,57,0.00,,,0.00,WUHU216HW,2013-04-01 02:45:00,
2013-03-31 19:50:00,59.4,44.7,29.90,NE,45,0.2,0.9,58,0.00,,,0.00,WUHU216HW,2013-04-01 02:50:00,
2013-03-31 19:55:00,59.0,44.3,29.90,NE,45,0.0,0.9,58,0.00,,,0.00,WUHU216HW,2013-04-01 02:55:00,
2013-03-31 20:00:00,58.9,44.1,29.90,NE,45,0.0,0.4,58,0.00,,,0.00,WUHU216HW,2013-04-01 03:00:00,
2013-03-31 20:05:00,58.7,43.9,29.90,NE,45,0.0,0.2,58,0.00,,,0.00,WUHU216HW,2013-04-01 03:05:00,
2013-03-31 20:10:00,58.1,43.9,29.90,WNW,293,0.4,0.9,59,0.00,,,0.00,WUHU216HW,2013-04-01 03:10:00,
2013-03-31 20:15:00,57.4,43.8,29.90,WSW,248,0.4,1.1,60,0.00,,,0.00,WUHU216HW,2013-04-01 03:15:00,
2013-03-31 20:20:00,57.1,43.7,29.90,WSW,248,0.4,1.1,61,0.00,,,0.00,WUHU216HW,2013-04-01 03:20:00,
2013-03-31 20:25:00,56.5,43.2,29.90,West,270,0.0,0.9,61,0.00,,,0.00,WUHU216HW,2013-04-01 03:25:00,
2013-03-31 20:30:00,56.0,43.1,29.91,WSW,248,1.3,1.8,62,0.00,,,0.00,WUHU216HW,2013-04-01 03:30:00,
2013-03-31 20:35:00,55.4,43.0,29.91,WSW,248,1.1,1.8,63,0.00,,,0.00,WUHU216HW,2013-04-01 03:35:00,
2013-03-31 20:40:00,54.9,42.9,29.91,WSW,248,1.3,1.6,64,0.00,,,0.00,WUHU216HW,2013-04-01 03:40:00,
2013-03-31 20:45:00,54.4,42.4,29.91,WSW,248,1.3,1.8,64,0.00,,,0.00,WUHU216HW,2013-04-01 03:45:00,
2013-03-31 20:50:00,54.2,42.7,29.91,WSW,248,1.3,1.8,65,0.00,,,0.00,WUHU216HW,2013-04-01 03:50:00,
2013-03-31 20:55:00,53.8,42.7,29.92,WSW,248,1.8,1.8,66,0.00,,,0.00,WUHU216HW,2013-04-01 03:55:00,
2013-03-31 21:00:00,53.6,42.5,29.91,WSW,248,1.3,2.2,66,0.00,,,0.00,WUHU216HW,2013-04-01 04:00:00,
2013-03-31 21:05:00,53.1,42.4,29.92,WSW,248,2.0,2.5,67,0.00,,,0.00,WUHU216HW,2013-04-01 04:05:00,
2013-03-31 21:10:00,52.9,42.7,29.91,WSW,248,2.5,2.5,68,0.00,,,0.00,WUHU216HW,2013-04-01 04:10:00,
2013-03-31 21:13:00,52.9,42.7,29.92,WSW,248,1.8,2.5,68,0.00,,,0.00,WUHU216HW,2013-04-01 04:13:00,
2013-03-31 21:18:00,52.9,43.0,29.92,WSW,248,2.5,2.5,69,0.00,,,0.00,WUHU216HW,2013-04-01 04:18:00,
2013-03-31 21:23:00,52.7,42.9,29.92,West,270,1.8,2.5,69,0.00,,,0.00,WUHU216HW,2013-04-01 04:23:00,
2013-03-31 21:28:00,52.6,42.8,29.92,WSW,248,1.1,2.5,69,0.00,,,0.00,WUHU216HW,2013-04-01 04:28:00,
2013-03-31 21:33:00,52.2,42.4,29.92,WSW,248,1.8,2.5,69,0.00,,,0.00,WUHU216HW,2013-04-01 04:33:00,
2013-03-31 21:38:00,51.8,42.0,29.93,WSW,248,4.7,5.8,69,0.00,,,0.00,WUHU216HW,2013-04-01 04:38:00,
2013-03-31 21:43:00,51.8,42.5,29.93,SW,225,3.1,5.8,70,0.00,,,0.00,WUHU216HW,2013-04-01 04:43:00,
2013-03-31 21:48:00,51.5,42.1,29.93,WSW,248,2.5,3.4,70,0.00,,,0.00,WUHU216HW,2013-04-01 04:48:00,
2013-03-31 21:53:00,51.3,42.3,29.93,SW,225,2.5,3.4,71,0.00,,,0.00,WUHU216HW,2013-04-01 04:53:00,
2013-03-31 21:58:00,51.3,42.3,29.93,WSW,248,2.2,3.4,71,0.00,,,0.00,WUHU216HW,2013-04-01 04:58:00,
2013-03-31 22:03:00,51.1,42.5,29.93,WSW,248,2.2,2.7,72,0.00,,,0.00,WUHU216HW,2013-04-01 05:03:00,
2013-03-31 22:08:00,50.9,42.3,29.93,WSW,248,2.9,2.9,72,0.00,,,0.00,WUHU216HW,2013-04-01 05:08:00,
2013-03-31 22:13:00,50.8,42.4,29.93,WSW,248,2.0,2.9,73,0.00,,,0.00,WUHU216HW,2013-04-01 05:13:00,
2013-03-31 22:18:00,50.8,42.4,29.93,WSW,248,2.7,3.1,73,0.00,,,0.00,WUHU216HW,2013-04-01 05:18:00,
2013-03-31 22:23:00,50.9,42.9,29.93,WSW,248,3.1,3.4,74,0.00,,,0.00,WUHU216HW,2013-04-01 05:23:00,
2013-03-31 22:28:00,51.1,43.5,29.94,WSW,248,2.2,4.0,75,0.00,,,0.00,WUHU216HW,2013-04-01 05:28:00,
2013-03-31 22:33:00,51.5,44.2,29.94,West,270,3.1,4.7,76,0.00,,,0.00,WUHU216HW,2013-04-01 05:33:00,
2013-03-31 22:38:00,51.8,44.6,29.94,WSW,248,6.9,7.8,76,0.00,,,0.00,WUHU216HW,2013-04-01 05:38:00,
2013-03-31 22:43:00,52.2,44.6,29.94,WSW,248,3.4,7.8,75,0.00,,,0.00,WUHU216HW,2013-04-01 05:43:00,
2013-03-31 22:48:00,52.4,44.4,29.94,SW,225,2.9,6.9,74,0.00,,,0.00,WUHU216HW,2013-04-01 05:48:00,
2013-03-31 22:53:00,52.4,44.4,29.94,WSW,248,5.4,6.9,74,0.00,,,0.00,WUHU216HW,2013-04-01 05:53:00,
2013-03-31 22:58:00,52.4,44.0,29.94,WSW,248,3.4,6.9,73,0.00,,,0.00,WUHU216HW,2013-04-01 05:58:00,
2013-03-31 23:03:00,52.2,43.8,29.94,SW,225,2.0,4.5,73,0.00,,,0.00,WUHU216HW,2013-04-01 06:03:00,
2013-03-31 23:08:00,52.0,44.0,29.94,WSW,248,3.1,4.0,74,0.00,,,0.00,WUHU216HW,2013-04-01 06:08:00,
2013-03-31 23:13:00,51.8,43.8,29.94,WSW,248,1.8,4.0,74,0.00,,,0.00,WUHU216HW,2013-04-01 06:13:00,
2013-03-31 23:18:00,51.7,44.0,29.94,SW,225,1.6,3.8,75,0.00,,,0.00,WUHU216HW,2013-04-01 06:18:00,
2013-03-31 23:23:00,51.7,43.7,29.94,WSW,248,0.4,3.4,74,0.00,,,0.00,WUHU216HW,2013-04-01 06:23:00,
2013-03-31 23:28:00,51.5,43.5,29.94,SSW,203,2.2,3.1,74,0.00,,,0.00,WUHU216HW,2013-04-01 06:28:00,
2013-03-31 23:33:00,51.5,43.5,29.94,WNW,293,1.8,3.1,74,0.00,,,0.00,WUHU216HW,2013-04-01 06:33:00,
2013-03-31 23:38:00,51.3,43.3,29.95,SSW,203,0.7,2.9,74,0.00,,,0.00,WUHU216HW,2013-04-01 06:38:00,
2013-03-31 23:43:00,51.1,43.1,29.95,WSW,248,1.8,2.9,74,0.00,,,0.00,WUHU216HW,2013-04-01 06:43:00,
2013-03-31 23:48:00,50.9,43.3,29.95,West,270,0.7,2.9,75,0.00,,,0.00,WUHU216HW,2013-04-01 06:48:00,
2013-03-31 23:53:00,50.8,43.1,29.95,SW,225,0.7,2.9,75,0.00,,,0.00,WUHU216HW,2013-04-01 06:53:00,
2013-03-31 23:58:00,50.6,42.9,29.96,WSW,248,0.4,2.5,75,0.00,,,0.00,WUHU216HW,2013-04-01 06:58:00,